• In Kazakhstan
  • List of Countries
  • For 7 days
  • Water Temperature
  • Satellite Maps
  • Weather Map
  • News
  • Weather Widgets
  • user-avatar
    Login

    Hourly Weather San Luis

    Today, 17 July, Wednesday

    Time Temperature Precipitation Wind Pressure Humidity
    00:00 +12°C° 0 mm 5 mps 699 mmHg 69%
    01:00 +10°C° 0 mm 5 mps 699 mmHg 70%
    02:00 +10°C° 0 mm 5 mps 699 mmHg 71%
    03:00 +11°C° 0 mm 4 mps 698 mmHg 72%
    04:00 +11°C° 0 mm 4 mps 698 mmHg 72%
    05:00 +10°C° 0 mm 4 mps 697 mmHg 73%
    06:00 +11°C° 0 mm 4 mps 698 mmHg 72%
    07:00 +10°C° 0 mm 5 mps 698 mmHg 71%
    08:00 +10°C° 0 mm 5 mps 698 mmHg 71%
    09:00 +13°C° 0 mm 5 mps 698 mmHg 64%
    10:00 +15°C° 0 mm 6 mps 698 mmHg 58%
    11:00 +17°C° 0 mm 7 mps 698 mmHg 51%
    12:00 +19°C° 0 mm 6 mps 698 mmHg 48%
    13:00 +20°C° 0 mm 6 mps 697 mmHg 44%
    14:00 +21°C° 0 mm 6 mps 697 mmHg 40%
    15:00 +20°C° 0 mm 6 mps 696 mmHg 43%
    16:00 +19°C° 0 mm 5 mps 696 mmHg 46%
    17:00 +17°C° 0 mm 5 mps 695 mmHg 49%
    18:00 +16°C° 0 mm 5 mps 695 mmHg 51%
    19:00 +15°C° 0 mm 5 mps 695 mmHg 54%
    20:00 +14°C° 0 mm 5 mps 695 mmHg 56%
    21:00 +14°C° 0 mm 5 mps 695 mmHg 58%
    22:00 +14°C° 0 mm 5 mps 696 mmHg 59%
    23:00 +13°C° 0 mm 5 mps 696 mmHg 60%

    Tomorrow, 18 July, Thursday

    Time Temperature Precipitation Wind Pressure Humidity
    00:00 +13°C° 0 mm 5 mps 696 mmHg 63%
    01:00 +13°C° 0 mm 5 mps 697 mmHg 66%
    02:00 +12°C° 0 mm 5 mps 697 mmHg 68%
    03:00 +10°C° 0 mm 5 mps 698 mmHg 70%
    04:00 +9°C° 0 mm 6 mps 699 mmHg 71%
    05:00 +9°C° 0 mm 6 mps 699 mmHg 72%
    06:00 +9°C° 0 mm 7 mps 700 mmHg 64%
    07:00 +8°C° 0 mm 7 mps 702 mmHg 56%
    08:00 +7°C° 0 mm 8 mps 703 mmHg 47%
    09:00 +7°C° 0 mm 8 mps 703 mmHg 44%
    10:00 +9°C° 0 mm 7 mps 704 mmHg 41%
    11:00 +9°C° 0 mm 7 mps 705 mmHg 39%
    12:00 +9°C° 0 mm 7 mps 704 mmHg 38%
    13:00 +10°C° 0 mm 7 mps 704 mmHg 37%
    14:00 +10°C° 0 mm 6 mps 704 mmHg 36%
    15:00 +10°C° 0 mm 6 mps 704 mmHg 37%
    16:00 +9°C° 0 mm 6 mps 703 mmHg 37%
    17:00 +9°C° 0 mm 5 mps 703 mmHg 38%
    18:00 +8°C° 0 mm 5 mps 703 mmHg 39%
    19:00 +8°C° 0 mm 5 mps 703 mmHg 41%
    20:00 +7°C° 0 mm 5 mps 703 mmHg 42%
    21:00 +7°C° 0 mm 5 mps 703 mmHg 47%
    22:00 +7°C° 0 mm 4 mps 703 mmHg 51%
    23:00 +7°C° 0 mm 4 mps 703 mmHg 55%

    Day after tomorrow, 19 July, Friday

    Time Temperature Precipitation Wind Pressure Humidity
    00:00 +7°C° 0 mm 3 mps 702 mmHg 58%
    01:00 +7°C° 0 mm 3 mps 701 mmHg 60%
    02:00 +6°C° 0 mm 2 mps 701 mmHg 63%
    03:00 +6°C° 0 mm 2 mps 700 mmHg 64%
    04:00 +6°C° 0 mm 2 mps 699 mmHg 66%
    05:00 +5°C° 0 mm 2 mps 699 mmHg 67%
    06:00 +6°C° 0 mm 2 mps 699 mmHg 68%
    07:00 +6°C° 0 mm 2 mps 698 mmHg 68%
    08:00 +5°C° 0 mm 3 mps 698 mmHg 69%
    09:00 +8°C° 0 mm 4 mps 698 mmHg 62%
    10:00 +10°C° 0 mm 5 mps 698 mmHg 55%
    11:00 +14°C° 0 mm 6 mps 698 mmHg 48%
    12:00 +15°C° 0 mm 6 mps 697 mmHg 47%
    13:00 +16°C° 0 mm 7 mps 696 mmHg 46%
    14:00 +17°C° 0 mm 7 mps 695 mmHg 45%
    15:00 +16°C° 0 mm 6 mps 695 mmHg 48%
    16:00 +16°C° 0 mm 5 mps 694 mmHg 51%
    17:00 +16°C° 0 mm 3 mps 693 mmHg 53%
    18:00 +14°C° 0 mm 3 mps 693 mmHg 59%
    19:00 +13°C° 0 mm 3 mps 693 mmHg 64%
    20:00 +11°C° 0 mm 3 mps 693 mmHg 70%
    21:00 +11°C° 0 mm 3 mps 693 mmHg 72%
    22:00 +10°C° 0 mm 3 mps 693 mmHg 75%
    23:00 +10°C° 0 mm 2 mps 693 mmHg 77%

    20 July, Saturday

    Time Temperature Precipitation Wind Pressure Humidity
    00:00 +10°C° 0 mm 2 mps 692 mmHg 77%
    01:00 +10°C° 0 mm 2 mps 692 mmHg 78%
    02:00 +10°C° 0 mm 2 mps 692 mmHg 78%
    03:00 +10°C° 0 mm 2 mps 692 mmHg 77%
    04:00 +10°C° 0 mm 3 mps 692 mmHg 76%
    05:00 +10°C° 0 mm 3 mps 692 mmHg 75%
    06:00 +10°C° 0 mm 3 mps 692 mmHg 75%
    07:00 +10°C° 0 mm 3 mps 692 mmHg 75%
    08:00 +11°C° 0 mm 3 mps 693 mmHg 76%
    09:00 +13°C° 0 mm 2 mps 693 mmHg 71%
    10:00 +14°C° 0 mm 2 mps 693 mmHg 67%
    11:00 +16°C° 0 mm 2 mps 693 mmHg 63%
    12:00 +16°C° 0 mm 2 mps 692 mmHg 63%
    13:00 +16°C° 0 mm 2 mps 691 mmHg 63%
    14:00 +16°C° 0 mm 2 mps 691 mmHg 63%
    15:00 +16°C° 0 mm 2 mps 690 mmHg 64%
    16:00 +16°C° 0 mm 2 mps 690 mmHg 65%
    17:00 +16°C° 0 mm 2 mps 690 mmHg 67%
    18:00 +15°C° 0 mm 2 mps 690 mmHg 71%
    19:00 +14°C° 0 mm 2 mps 690 mmHg 76%
    20:00 +13°C° 0 mm 2 mps 690 mmHg 80%
    21:00 +12°C° 0 mm 2 mps 690 mmHg 83%
    22:00 +12°C° 0 mm 2 mps 691 mmHg 85%
    23:00 +12°C° 0 mm 2 mps 691 mmHg 88%

    21 July, Sunday

    Time Temperature Precipitation Wind Pressure Humidity
    00:00 +12°C° 0 mm 2 mps 691 mmHg 88%
    01:00 +11°C° 0 mm 3 mps 691 mmHg 88%
    02:00 +11°C° 0 mm 3 mps 691 mmHg 88%
    03:00 +11°C° 0 mm 3 mps 691 mmHg 87%
    04:00 +11°C° 0 mm 3 mps 692 mmHg 86%
    05:00 +11°C° 0 mm 3 mps 692 mmHg 84%
    06:00 +11°C° 0 mm 4 mps 692 mmHg 85%
    07:00 +10°C° 0 mm 5 mps 693 mmHg 86%
    08:00 +10°C° 0 mm 6 mps 693 mmHg 86%
    09:00 +10°C° 0 mm 7 mps 694 mmHg 79%
    10:00 +10°C° 0 mm 8 mps 694 mmHg 71%
    11:00 +10°C° 0 mm 8 mps 695 mmHg 64%
    12:00 +10°C° 0 mm 9 mps 695 mmHg 65%
    13:00 +10°C° 0 mm 9 mps 694 mmHg 67%
    14:00 +8°C° 0 mm 9 mps 694 mmHg 69%
    15:00 +8°C° 0 mm 9 mps 694 mmHg 65%
    16:00 +8°C° 0 mm 10 mps 694 mmHg 61%
    17:00 +7°C° 0 mm 10 mps 694 mmHg 58%
    18:00 +6°C° 0 mm 10 mps 695 mmHg 55%
    19:00 +6°C° 0 mm 10 mps 695 mmHg 51%
    20:00 +5°C° 0 mm 10 mps 696 mmHg 48%
    21:00 +5°C° 0 mm 10 mps 696 mmHg 47%
    22:00 +3°C° 0 mm 10 mps 697 mmHg 46%
    23:00 +3°C° 0 mm 10 mps 698 mmHg 45%

    22 July, Monday

    Time Temperature Precipitation Wind Pressure Humidity
    00:00 +2°C° 0.2 mm 10 mps 698 mmHg 56%
    01:00 +1°C° 0.2 mm 10 mps 698 mmHg 67%
    02:00 0°C° 0.2 mm 9 mps 698 mmHg 79%
    03:00 -1°C° 0.4 mm 9 mps 698 mmHg 83%
    04:00 -1°C° 0.4 mm 9 mps 698 mmHg 87%
    05:00 -1°C° 0.4 mm 9 mps 699 mmHg 92%
    06:00 -1°C° 0.5 mm 8 mps 699 mmHg 92%
    07:00 -1°C° 0.5 mm 7 mps 700 mmHg 92%
    08:00 -1°C° 0.5 mm 7 mps 701 mmHg 92%
    09:00 -1°C° 0.3 mm 6 mps 701 mmHg 84%
    10:00 +1°C° 0.3 mm 6 mps 702 mmHg 76%
    11:00 +2°C° 0.3 mm 6 mps 702 mmHg 69%
    12:00 +3°C° 0 mm 5 mps 702 mmHg 63%
    13:00 +5°C° 0 mm 5 mps 702 mmHg 57%
    14:00 +6°C° 0 mm 5 mps 702 mmHg 51%
    15:00 +5°C° 0 mm 4 mps 702 mmHg 49%
    16:00 +5°C° 0 mm 4 mps 702 mmHg 47%
    17:00 +5°C° 0 mm 4 mps 702 mmHg 45%
    18:00 +4°C° 0 mm 3 mps 702 mmHg 46%
    19:00 +3°C° 0 mm 3 mps 702 mmHg 48%
    20:00 +2°C° 0 mm 3 mps 702 mmHg 50%
    21:00 +2°C° 0 mm 3 mps 702 mmHg 50%
    22:00 +1°C° 0 mm 3 mps 702 mmHg 49%
    23:00 +1°C° 0 mm 3 mps 703 mmHg 49%
    Show more